User: anonymous   Login
Location: Donald C. Martin Observatory
(38.3885°N, 82.3916°W)
Time: 09:24:58
(UTC-04:00)
Language:

Cosmos 1484 Rocket - Orbit

View from above orbital plane
View from above orbital plane
View from above satellite
View from above satellite

Ground track
Ground track

The orbit data is extracted from the following two-line orbital elements,

1 14208U 83075B   16149.53211746  .00000816  00000-0  53211-4 0  9999
2 14208  97.3556 169.6911 0040433  20.1975 340.0843 15.09928534789454
Epoch (UTC): 28 May 2016 12:46:14
Eccentricity: 0.0040433
inclination: 97.3556°
perigee height: 508 km
apogee height: 564 km
right ascension of ascending node: 169.6911°
argument of perigee: 20.1975°
revolutions per day: 15.09928534
mean anomaly at epoch: 340.0843°
orbit number at epoch: 78945

The dashed part of the orbit path shows where the satellite is in the earth's shadow,  

DLR